{"data":{"norad_id":59392,"intl_designator":"2024-062U","name":"STARLINK-31626","alt_names":[],"object_type":"PAYLOAD","status":"ACTIVE","operator":null,"country":"US","launch_date":"2024-04-02","launch_site_code":"AFWTR","launch_vehicle":null,"mission":null,"orbit_class":"UNKNOWN","rcs_meters":null,"size_class":null,"mass_kg":null,"dimensions":null,"purposes":["comms"],"wikipedia_slug":null,"has_3d_model":false,"image_url":null,"decayed_at":null,"tle_current":{"epoch":"2026-05-25T01:05:10.102848Z","epoch_age_seconds":68385,"freshness":"FRESH","line1":"1 59392U 24062U   26145.04525582  .00003715  00000+0  13755-3 0  9990","line2":"2 59392  53.1606 260.8649 0001498  98.4027 261.7144 15.30181800121363","mean_motion":15.301818,"eccentricity":0.0001498,"inclination_deg":53.1606,"raan_deg":260.8649,"arg_perigee_deg":98.4027,"mean_anomaly_deg":261.7144,"bstar":0.00013755,"rev_number":12136,"period_min":94.106464996512,"perigee_km":474.24277159687,"apogee_km":476.29605215787,"semimajor_km":6853.4064118774,"source":"CELESTRAK","updated_at":"2026-05-25T13:38:18.937349Z"}}}